Sisseton, SD

5:49 PM CDT on August 29, 2016 (GMT -0500)
Sisseton

Weather History for K8D3 - November, 2012

Change the Weather History Date:

Tuesday, November 6, 2012

  Actual Average Record
Temperature  
Mean Temperature 38 °F 36 °F  
Max Temperature 46 °F 46 °F 70 °F (1975)
Min Temperature 30 °F 27 °F 0 °F (1935)
Degree Days  
Heating Degree Days 27 29  
Month to date heating degree days 177 165  
Since 1 July heating degree days 1050 992  
Cooling Degree Days 0 0  
Month to date cooling degree days 0 0  
Year to date cooling degree days 712 527  
Moisture  
Dew Point 33 °F    
Average Humidity 75    
Maximum Humidity 92    
Minimum Humidity 58    
Precipitation  
Precipitation 0.03 in 0.02 in 0.55 in (2008)
Month to date precipitation 0.11 0.17  
Year to date precipitation 16.61 21.53  
Snow  
Snow 0.00 in - - ()
Month to date snowfall T  
Since 1 July snowfall T  
Snow Depth 0.00 in    
Sea Level Pressure  
Sea Level Pressure 29.94 in    
Wind  
Wind Speed 19 mph (NNW)    
Max Wind Speed 31 mph    
Max Gust Speed 38 mph    
T = Trace of Precipitation, MM = Missing Value Source: NWS Daily Summary

Daily Weather History Graph

Daily Weather History Graph

Search for Another Location

Airport or City:

Trip Planner

Search our weather history database for the weather conditions in past years. The results will help you decide how hot, cold, wet, or windy it might be!

Date:

Astronomy

Nov. 06, 2012 Rise Set
Actual Time 7:15 AM CST 5:07 PM CST
Civil Twilight 6:44 AM CST 5:38 PM CST
Nautical Twilight 6:08 AM CST 6:13 PM CST
Astronomical Twilight 5:33 AM CST 6:48 PM CST
Moon 11:51 PM CST (11/6) 1:05 PM CST (11/6)
Length of Visible Light 10h 54m
Length of Day
9h 51m
Waning Gibbous, 53% of the Moon is Illuminated
Nov 6
Waning Gibbous
Nov 6
Last Quarter
Nov 13
New
Nov 20
First Quarter
Nov 28
Full

Hourly Weather History & Observations

Time (CST) Temp. Windchill Dew Point Humidity Pressure Visibility Wind Dir Wind Speed Gust Speed Precip Events Conditions
12:56 AM 43.0 °F 34.8 °F 39.0 °F 86% 29.80 in - West 18.4 mph 25.3 mph 0.03 in   Unknown
1:56 AM 43.0 °F 35.7 °F 39.0 °F 86% 29.80 in - NNW 15.0 mph - N/A   Unknown
2:56 AM 42.1 °F 33.3 °F 36.0 °F 79% 29.81 in - NNW 19.6 mph 26.5 mph N/A   Unknown
3:56 AM 41.0 °F 30.9 °F 33.1 °F 73% 29.82 in - NW 24.2 mph - N/A   Unknown
4:56 AM 39.9 °F 30.2 °F 32.0 °F 73% 29.84 in - NW 20.7 mph 28.8 mph N/A   Unknown
5:56 AM 39.9 °F 30.0 °F 32.0 °F 73% 29.86 in - NW 21.9 mph 33.4 mph N/A   Unknown
6:56 AM 41.0 °F 30.9 °F 32.0 °F 70% 29.86 in - NW 24.2 mph 36.8 mph N/A   Unknown
7:56 AM 41.0 °F 31.1 °F 32.0 °F 70% 29.88 in - NW 23.0 mph 32.2 mph N/A   Unknown
8:56 AM 42.1 °F 32.1 °F 33.1 °F 70% 29.90 in - NNW 25.3 mph 35.7 mph N/A   Unknown
9:56 AM 42.1 °F 32.1 °F 33.1 °F 70% 29.91 in - NNW 25.3 mph 35.7 mph N/A   Unknown
10:56 AM 43.0 °F 33.3 °F 34.0 °F 71% 29.92 in - NNW 25.3 mph 33.4 mph N/A   Unknown
11:56 AM 45.0 °F 35.8 °F 34.0 °F 65% 29.92 in - NNW 26.5 mph 38.0 mph N/A   Unknown
12:56 PM 44.1 °F 35.2 °F 34.0 °F 68% 29.93 in - NNW 23.0 mph 33.4 mph N/A   Unknown
1:56 PM 45.0 °F 36.0 °F 34.0 °F 65% 29.94 in - NNW 25.3 mph 31.1 mph N/A   Unknown
2:56 PM 46.0 °F 37.2 °F 32.0 °F 58% 29.95 in - North 26.5 mph 35.7 mph N/A   Unknown
3:56 PM 46.0 °F 39.0 °F 33.1 °F 61% 29.97 in - North 17.3 mph 27.6 mph N/A   Unknown
4:56 PM 45.0 °F 38.2 °F 34.0 °F 65% 29.99 in - North 15.0 mph - N/A   Unknown
5:56 PM 44.1 °F 37.7 °F 35.1 °F 71% 30.01 in - North 12.7 mph - N/A   Unknown
6:56 PM 42.1 °F 36.6 °F 35.1 °F 76% 30.03 in - NNW 9.2 mph - N/A   Unknown
7:56 PM 41.0 °F 34.3 °F 33.1 °F 73% 30.05 in - North 11.5 mph - N/A   Unknown
8:56 PM 39.0 °F 32.8 °F 32.0 °F 76% 30.06 in - North 9.2 mph - N/A   Unknown
9:56 PM 36.0 °F 28.5 °F 30.0 °F 79% 30.08 in - NNW 10.4 mph - N/A   Unknown
10:56 PM 30.9 °F 23.5 °F 28.0 °F 89% 30.08 in - NNW 8.1 mph - N/A   Unknown
11:56 PM 34.0 °F 26.0 °F 30.0 °F 85% 30.08 in - NW 10.4 mph - N/A   Unknown